Oscoda, MI (48750)

1:30 AM EDT on August 18, 2017 (GMT -0400)
East Brewster Park | | Change Station
Active Advisory: Beach Hazard Statement

Elev 607 ft 44.45 °N, 83.33 °W | Updated 45 seconds ago

Mostly Cloudy
Mostly Cloudy
67.6 °F
Feels Like 67.6 °F
N
1.3
Wind Variable Wind from South
Gusts 2.7 mph

Today
High -- | Low -- °F
--% Chance of Precip.
Yesterday
High -- | Low -- °F
Precip. -- in
Pressure 29.62 in
Visibility 10.0 miles
Clouds Scattered Clouds 4500 ft
Mostly Cloudy 5500 ft
Dew Point 68 °F
Humidity 99%
Rainfall 0.00 in
Snow Depth Not available.
6:40 AM 8:33 PM
Waning Crescent, 16% visible
METAR KOSC 180514Z AUTO 21007G16KT 10SM SCT045 BKN055 21/20 A2962 RMK AO2 T02110197
Pressure 29.62 in
Visibility 10.0 miles
Clouds Scattered Clouds 4500 ft
Mostly Cloudy 5500 ft
Dew Point 68 °F
Humidity 99%
Rainfall 0.00 in
Snow Depth Not available.
6:40 AM 8:33 PM
Waning Crescent, 16% visible
METAR KOSC 180514Z AUTO 21007G16KT 10SM SCT045 BKN055 21/20 A2962 RMK AO2 T02110197

Get Your Daily Forecast Email!

Thanks for signing up!

Be on the lookout for a verification email in your inbox.

You'll start receiving severe weather alerts in your inbox..

×

10-Day Weather Forecast

Almanac

Astronomy

Aug. 18, 2017 Rise Set
Actual Time
Civil Twilight
Nautical Twilight
Astronomical Twilight
Moon
Length of Visible Light
Length of Day
Tomorrow will be .
, % of the Moon is Illuminated

Today's Extremes

State Highs State Lows

Community

WunderPhotos

Category 6

Welcome to Category 6. This is the collective home for Weather Underground's featured writeups by Dr. Jeff Masters (right), Bob Henson (left), Chris Burt, and other regular contributors.

Nearby

Air Quality

  Air Quality AQ Index Pollutant
Not available.

Snow Depth

Station Depth Elevation

Earthquake Activity

City Distance Mag. Time & Date
Minimum magnitude displayed is 2.5.

Coastal Water Temperatures

Place Temperature

Stations

Nearby Weather Stations

Station Location Temp. Windchill Dew Point Humidity Wind Precip. Elev Updated Type
                   

Watches & Warnings

Beach Hazard Statement
Issued: 10:22 PM EDT Aug. 17, 2017 – National Weather Service

... Beach hazards statement remains in effect until 5 am EDT
Friday...

* hazards... strong currents and high waves.

* Timing... through tonight.

* Location... Lake Huron beaches of northeast lower Michigan as
well as eastern Chippewa and Mackinac County beaches in
eastern Upper Michigan.

Precautionary/preparedness actions...

A high swim risk means life threatening waves and currents are
expected. Stay out of the water and stay away from dangerous
areas like piers and breakwalls.